RH
66 67 67 70 74 71 59 45 39 39 39 39 40 40 41 41 42 44 43 43 45 44 41 39 39 38 37 37 35 33 30 29 30 31 31 30 28 25 22 18 17 17 17 17 16 16 15 15 14 15 14 14 13 13 13 11 11 10 9 9 10 10 10 10 11 11 12 11 8 8 6 8 33 64 66 55 47 46 64 84 92 98 99 96 98
67 71 72 70 68 61 52 45 42 42 42 42 42 44 46 47 48 49 49 50 50 47 43 43 43 41 39 38 36 34 30 28 28 29 30 31 31 30 27 22 19 17 17 17 17 17 17 17 16 16 16 16 15 14 14 13 12 11 11 10 10 11 11 10 11 11 12 14 10 8 8 5 24 61 73 62 53 49 59 78 89 95 98 94 93
68 72 72 69 65 59 54 51 48 46 44 44 45 47 50 51 52 53 54 55 51 47 47 49 47 44 40 39 38 35 31 29 30 31 32 33 33 32 29 25 21 19 18 18 18 17 17 17 17 17 16 16 16 15 15 14 13 13 12 11 10 11 12 11 11 12 12 15 13 9 9 5 15 52 77 69 58 55 61 75 83 84 90 92 92
63 67 69 70 70 66 64 61 56 51 47 47 47 50 53 54 55 57 58 56 51 50 52 53 50 47 44 43 42 39 35 34 34 34 33 32 31 29 26 23 21 19 19 18 18 18 18 18 18 18 17 17 16 16 15 14 14 13 12 12 11 11 12 12 11 11 10 13 15 10 10 8 8 38 75 76 64 67 76 83 83 82 88 93 95
67 68 70 74 75 74 72 68 63 56 50 49 48 50 53 54 58 61 59 56 54 56 58 57 54 52 49 48 47 43 41 39 38 34 30 27 25 23 22 20 19 19 18 18 19 18 18 18 18 18 18 17 17 16 15 15 14 14 13 12 12 12 12 12 14 16 14 12 14 15 16 14 6 25 69 82 67 70 86 92 91 89 92 96 96
76 75 76 80 81 80 79 76 72 63 55 51 51 51 53 56 62 63 60 58 59 61 62 62 59 57 54 52 50 49 47 42 36 30 26 23 22 22 21 20 20 20 19 19 19 19 19 18 18 18 18 17 17 16 15 14 13 13 13 12 12 13 12 13 15 19 16 11 14 20 21 16 7 16 57 85 74 68 83 94 94 93 96 98 98
77 78 79 82 81 80 81 80 79 73 64 59 57 56 57 61 64 63 60 61 62 63 66 67 64 60 58 56 55 54 47 38 30 26 24 23 22 21 21 21 20 20 20 19 19 19 19 18 18 18 17 16 16 16 14 14 13 12 13 12 12 13 13 14 14 15 15 12 13 18 17 15 12 12 42 81 82 70 83 96 95 96 99 99 100
76 77 77 77 75 74 75 76 79 76 71 66 62 61 62 63 64 63 61 62 63 64 68 70 67 63 60 60 58 52 41 31 27 24 23 21 21 21 20 20 21 20 20 20 19 19 18 18 18 17 17 17 16 16 14 14 13 12 13 12 13 14 14 15 16 15 15 14 13 15 14 15 16 9 25 70 91 83 88 99 98 98 101 99 100
69 67 66 66 66 66 66 69 72 71 68 66 65 64 64 64 63 62 62 64 65 67 71 72 68 64 63 62 56 44 33 27 25 23 22 22 22 22 22 21 21 20 20 19 18 19 18 17 18 17 17 17 16 16 16 15 14 13 13 14 14 15 15 15 17 16 16 15 14 15 15 14 16 9 12 53 95 99 91 94 98 99 100 99 99
57 54 54 55 60 64 65 66 66 65 63 63 63 63 62 63 62 62 64 66 67 70 75 75 69 67 66 59 46 34 28 26 24 23 24 25 24 23 22 21 20 19 19 19 18 18 18 18 18 18 18 19 19 19 18 17 16 15 14 15 15 16 17 17 18 18 17 17 15 15 17 14 15 13 8 28 74 100 97 92 97 101 100 100 100
52 50 48 50 58 68 73 70 67 65 63 61 61 61 61 61 61 63 65 66 69 76 79 75 72 71 63 47 34 28 26 26 26 26 25 24 22 21 19 18 17 16 15 15 14 14 14 14 14 15 16 17 18 19 20 20 20 19 18 17 16 16 17 18 19 20 19 18 17 15 17 16 14 15 11 11 37 79 101 99 97 100 99 98 100
51 49 49 52 59 71 79 79 74 68 64 62 61 61 61 62 63 63 65 70 78 82 80 77 75 65 47 34 29 28 28 27 26 25 22 20 17 15 13 12 10 9 9 8 8 8 7 7 8 8 9 10 11 13 16 18 20 21 21 21 20 18 17 17 17 19 20 19 19 17 17 17 15 14 16 12 16 49 89 103 99 98 97 97 99
47 48 52 57 63 74 83 84 81 76 70 65 63 62 63 65 65 67 73 81 85 84 81 77 65 47 34 30 30 29 27 26 23 19 16 14 11 9 8 7 6 5 5 5 5 5 5 5 5 5 5 6 7 7 9 12 15 18 20 21 22 21 20 19 17 18 20 19 19 19 18 18 17 14 15 16 13 26 62 94 103 99 96 98 100
49 54 57 59 63 73 81 85 85 83 79 73 68 67 68 69 72 79 85 88 87 84 77 62 44 34 32 31 29 26 23 19 15 12 10 8 7 6 5 5 5 4 4 4 4 4 4 3 3 4 4 4 5 5 6 7 9 11 14 17 20 21 21 22 20 19 19 19 19 20 19 18 19 17 15 15 14 15 34 71 99 101 97 99 101
56 58 58 57 59 67 79 88 91 90 88 85 81 79 80 83 87 90 91 89 84 74 57 41 34 33 31 27 22 18 14 11 9 8 6 6 5 5 4 4 4 4 3 3 3 3 3 3 3 3 3 3 3 3 4 6 7 8 10 12 15 18 20 22 22 22 21 21 19 20 21 20 19 18 16 15 16 15 19 46 86 103 99 99 102
59 57 56 56 57 65 79 92 99 98 96 94 92 92 94 94 94 92 89 81 68 51 38 34 33 29 23 18 14 11 9 8 7 6 5 5 4 3 4 3 3 3 2 2 2 2 2 2 2 2 2 2 2 2 2 3 4 6 9 11 12 14 19 23 24 23 22 23 21 20 20 21 20 19 18 16 16 16 15 27 64 97 102 98 101
59 56 59 63 63 69 84 97 101 100 99 99 98 98 96 94 91 86 75 60 45 37 34 31 25 19 14 12 10 9 8 7 5 5 4 3 3 3 3 2 2 2 2 2 2 2 2 2 2 2 2 1 2 2 2 2 3 3 5 9 11 14 18 24 27 26 24 23 23 22 21 21 21 19 19 18 16 17 16 17 41 78 99 101 100
57 55 64 78 82 84 94 102 101 100 101 101 99 96 92 87 79 65 50 40 35 33 28 21 15 13 12 11 9 7 6 4 4 4 3 2 3 2 2 2 2 2 2 2 2 2 2 2 2 2 2 2 2 2 2 2 2 2 2 4 8 14 19 24 28 30 29 25 23 23 21 21 21 19 18 19 18 17 17 16 23 45 72 92 101
54 65 79 93 99 98 99 102 100 100 101 98 93 88 78 66 54 43 37 35 30 24 17 14 14 13 10 9 7 5 4 3 3 3 2 3 3 2 2 3 2 2 3 2 2 3 2 2 2 2 2 2 2 3 4 3 2 2 2 2 4 9 16 23 28 30 31 30 27 25 23 22 21 20 18 18 19 18 17 16 18 24 40 65 89
61 88 98 99 101 100 100 101 101 98 95 87 77 66 54 44 40 36 33 27 19 15 14 14 13 10 7 6 4 3 3 3 2 3 3 3 3 3 3 3 2 3 3 2 3 3 2 2 2 2 2 2 2 3 2 1 4 6 3 2 3 6 12 20 26 30 33 33 30 27 25 22 21 21 19 18 19 19 16 14 15 19 24 35 59
73 98 102 98 101 102 100 98 94 86 76 65 54 46 41 39 36 29 22 16 14 14 14 12 9 7 5 4 3 3 3 3 3 3 3 3 3 3 3 3 3 3 3 3 3 2 2 3 2 2 4 2 2 7 11 15 24 24 13 5 2 3 8 17 24 30 34 36 35 31 27 24 21 20 19 17 17 17 17 15 13 15 20 23 32
85 97 100 99 98 94 89 83 74 63 55 48 43 41 38 31 24 18 15 15 15 14 11 9 7 4 3 3 3 3 3 3 3 3 3 4 4 4 4 4 4 4 3 3 3 2 3 3 2 3 4 2 11 30 44 53 61 56 42 29 16 6 6 15 24 30 34 36 36 34 30 27 24 21 19 17 16 15 16 16 14 13 17 19 20
90 91 90 86 80 74 68 62 54 49 46 44 40 34 26 19 15 15 15 14 12 11 8 6 4 4 4 3 3 3 3 3 3 4 4 4 4 4 5 4 4 4 4 3 3 3 3 3 3 7 10 18 45 73 78 73 75 73 64 55 43 28 20 21 26 32 35 36 37 36 33 29 26 24 22 19 17 17 17 18 18 15 14 18 20
77 75 72 68 64 60 54 49 47 47 43 37 29 20 15 14 15 15 14 12 9 7 5 4 4 4 4 3 3 4 4 3 4 4 4 5 5 5 5 5 5 5 4 4 4 3 3 2 5 14 23 35 64 93 98 91 91 90 81 71 62 54 46 40 38 38 38 38 37 36 34 32 28 26 24 22 19 18 18 19 19 18 15 15 19
67 66 64 60 56 51 48 48 47 42 32 23 16 13 13 15 15 14 11 9 7 6 5 4 4 4 3 4 4 4 4 4 4 5 5 5 5 5 5 5 5 5 5 5 5 3 4 3 4 19 40 52 62 75 83 89 96 99 93 84 76 71 67 60 54 49 46 44 41 38 36 33 31 27 25 24 22 19 20 20 20 20 17 15 21
65 63 59 54 51 50 50 47 38 27 18 13 12 13 16 16 13 11 8 6 5 5 4 4 4 4 4 4 4 4 5 5 5 5 6 6 6 6 6 6 6 6 5 6 6 4 4 5 3 10 30 50 59 60 59 65 77 87 89 86 85 88 87 78 68 63 58 52 46 43 39 35 32 29 25 23 23 21 21 21 20 20 17 17 33
59 56 53 52 54 53 45 34 22 14 12 12 13 16 17 14 10 8 7 6 5 5 5 5 4 4 4 4 4 5 5 5 6 6 6 6 6 7 7 6 6 7 6 6 7 6 4 5 5 4 8 19 33 43 50 57 67 72 71 69 73 84 92 89 84 84 80 70 60 54 48 40 35 32 28 26 25 22 22 26 31 35 36 35 47
55 53 54 56 52 42 28 17 12 11 11 13 16 17 14 10 8 6 6 5 5 5 5 5 4 4 5 5 5 5 5 5 7 7 7 7 7 7 8 8 7 8 8 6 7 7 6 5 6 6 5 5 9 20 35 51 63 69 67 62 60 67 78 86 92 95 92 83 75 70 64 55 47 41 35 31 29 29 33 44 55 67 74 77 79
53 55 57 53 40 24 15 11 10 10 12 16 18 15 10 7 6 5 5 5 5 5 5 5 5 5 5 5 5 6 7 7 8 8 8 8 8 8 9 10 9 9 9 8 7 7 7 8 7 7 7 6 5 6 11 22 37 51 60 65 66 68 75 81 87 89 86 82 80 77 71 66 62 57 53 48 44 44 48 55 65 75 83 90 95
54 57 54 41 24 13 10 9 9 11 15 18 16 11 7 6 5 4 5 5 5 5 5 6 6 5 5 7 6 6 8 8 8 9 8 8 9 10 10 11 11 10 9 9 10 9 8 9 9 9 8 8 8 7 5 6 10 18 29 42 52 61 68 72 75 76 75 75 76 76 74 72 70 70 70 68 65 62 58 61 73 84 89 91 95
54 54 43 26 13 9 9 9 11 15 17 16 12 8 5 5 4 5 5 5 5 6 6 6 6 6 6 7 7 7 9 9 9 10 9 9 10 11 11 12 12 12 12 11 11 11 12 11 11 10 10 9 8 8 8 7 6 5 7 12 19 27 36 44 51 55 57 59 61 63 65 68 69 70 70 70 70 69 65 67 79 91 96 96 96
53 44 28 14 9 8 9 11 15 18 16 12 8 5 5 5 5 5 5 5 6 6 6 6 6 6 7 8 8 8 9 10 11 11 10 11 11 11 13 14 14 14 14 14 14 14 14 14 13 12 12 12 11 10 10 9 8 8 7 5 5 7 9 13 20 27 32 36 38 41 45 49 53 56 59 60 62 64 65 67 73 80 87 91 93
45 29 15 9 9 9 11 15 18 17 13 8 5 5 5 5 5 5 5 6 6 6 7 7 7 7 8 8 9 9 10 11 12 12 11 12 13 13 13 15 16 15 16 16 17 18 17 17 17 16 14 13 13 12 11 11 10 9 9 8 7 6 5 5 6 8 11 14 17 21 24 27 30 34 38 41 44 46 50 54 58 63 68 74 79
29 16 10 9 10 12 16 19 18 13 9 6 5 5 5 5 5 6 6 6 7 7 8 8 7 7 8 9 9 10 11 12 13 13 13 14 14 14 14 15 15 16 17 17 18 18 19 19 19 19 18 17 16 14 13 12 12 11 11 10 9 8 8 7 6 5 5 5 6 7 9 11 13 14 16 18 21 23 26 30 34 39 43 47 51
16 11 9 9 12 18 21 20 15 9 6 5 5 5 5 5 5 6 6 7 7 8 8 8 8 8 8 9 10 11 12 14 14 15 15 15 14 14 14 14 15 16 17 18 18 18 20 20 20 20 20 20 19 18 17 15 14 13 12 11 11 10 10 9 8 8 7 6 6 5 5 5 5 6 6 7 8 9 10 11 13 15 18 21 23
12 10 9 12 19 24 22 16 10 6 5 5 5 5 5 6 6 6 7 7 8 8 9 8 8 8 9 10 11 12 13 14 16 17 17 16 14 14 14 14 15 16 17 18 18 19 20 21 21 21 22 21 21 21 20 19 18 16 14 13 12 12 12 11 10 10 9 8 8 7 7 6 6 5 5 5 5 5 5 5 5 5 6 7 8
10 10 13 19 24 24 18 10 6 5 5 5 6 6 6 6 7 7 7 8 8 9 9 9 8 9 10 11 12 13 14 15 17 18 18 15 14 15 16 16 16 17 17 18 18 19 20 21 22 22 23 23 23 23 22 22 21 19 18 17 15 14 13 12 12 11 11 11 10 9 9 9 8 8 7 7 6 6 5 5 5 5 5 5 5
9 14 21 26 26 19 11 7 5 6 6 6 6 7 7 7 7 8 8 8 9 9 9 9 9 9 10 12 13 13 15 17 19 19 17 15 15 16 17 17 17 17 18 18 18 19 21 22 23 24 24 24 24 24 24 24 23 22 21 20 19 17 16 14 14 13 12 12 12 12 11 10 10 10 9 9 8 8 8 8 7 7 6 6 6
14 22 28 28 21 12 7 6 6 6 6 7 7 7 8 8 8 9 9 9 10 10 10 10 10 10 11 12 14 14 16 19 20 18 16 16 17 18 18 18 18 18 19 19 19 20 22 23 24 24 24 24 24 24 24 24 24 24 23 23 22 21 20 18 17 16 15 14 14 13 12 12 12 12 11 11 10 10 10 9 9 9 9 8 8
22 29 29 23 14 7 6 6 6 6 7 8 8 8 9 9 9 10 10 11 11 11 11 11 11 12 13 13 14 16 19 20 19 17 17 18 19 19 20 19 19 19 19 19 20 20 22 23 25 25 26 26 25 25 25 24 24 24 24 24 24 24 23 23 22 20 19 18 16 15 15 14 14 13 13 13 12 12 12 12 11 11 11 10 10
29 30 24 14 7 6 7 7 7 8 9 9 9 9 10 10 11 11 12 13 13 13 13 13 13 14 15 15 17 20 21 21 18 17 18 20 20 21 21 20 20 20 20 20 20 21 21 22 24 25 26 26 27 27 27 26 26 26 25 25 25 25 25 25 24 24 23 22 21 20 19 17 16 16 16 15 15 14 14 14 14 13 13 13 13
32 25 14 7 6 7 7 7 8 9 9 10 11 11 11 12 13 13 14 15 15 15 15 15 15 16 17 19 22 23 22 20 18 19 20 21 22 22 22 22 22 22 21 21 21 20 21 21 22 23 24 25 26 26 27 28 28 28 28 28 27 27 27 26 26 26 25 25 24 24 23 22 21 20 19 18 18 18 17 17 16 16 16 16 16
26 15 8 7 8 8 8 9 10 11 11 12 13 14 14 15 15 16 17 17 17 18 18 17 18 19 21 23 24 23 20 19 20 21 22 22 23 23 23 23 24 24 23 23 23 22 22 22 21 21 22 22 23 24 25 26 27 28 29 29 30 30 29 29 29 28 27 26 26 25 25 25 24 24 23 23 22 21 21 21 20 20 19 19 19
17 9 7 8 8 9 10 11 12 12 13 14 15 16 17 17 17 18 19 20 19 20 20 20 22 24 26 25 23 21 20 21 22 23 23 23 23 23 23 23 23 23 23 24 24 24 24 24 24 24 23 23 23 23 23 23 24 25 26 27 28 29 29 30 30 30 30 29 28 27 26 26 25 25 25 25 25 24 25 24 23 23 23 23 22
11 8 8 9 10 11 12 13 14 14 16 17 18 19 19 19 20 21 21 20 21 21 23 25 27 26 24 23 21 22 22 23 23 23 23 23 22 22 22 22 22 22 23 23 23 23 24 24 25 25 25 25 25 25 25 25 24 24 24 25 25 25 26 27 28 29 30 31 31 31 30 29 28 27 26 26 26 26 26 26 26 26 26 25 26
8 9 10 11 12 13 14 15 16 18 18 19 20 21 21 22 22 22 22 22 25 27 28 27 26 24 22 22 23 23 23 23 22 22 22 22 21 22 22 21 22 22 22 22 22 23 23 23 23 24 24 25 25 25 26 26 26 26 26 26 26 26 26 26 27 27 29 29 31 32 32 31 31 30 29 28 28 27 26 26 27 27 27 27 27
9 10 12 13 14 15 17 18 19 20 20 21 21 22 23 23 23 24 26 28 29 29 27 25 23 23 23 23 23 23 22 22 22 21 21 21 21 21 21 21 21 21 21 22 22 22 23 23 23 24 24 24 24 25 25 26 26 27 27 27 27 27 27 27 28 28 28 29 30 31 32 33 33 33 33 33 32 31 30 29 28 28 28 28 28
11 12 14 15 17 18 19 21 22 22 21 22 23 23 24 26 28 29 30 30 28 25 24 23 23 24 23 23 22 22 21 21 21 21 21 21 21 21 21 21 21 22 22 22 22 23 23 23 24 24 24 24 25 25 25 25 26 26 27 27 28 28 28 28 28 29 29 30 30 31 32 33 33 34 35 35 35 34 34 33 32 31 31 30 30
13 14 16 17 19 21 22 23 24 24 24 26 27 28 29 30 30 29 27 25 24 24 24 23 23 23 22 22 22 21 21 21 21 21 21 21 21 22 22 23 23 24 25 25 25 24 24 24 24 24 24 25 25 25 25 26 26 26 27 27 28 29 29 29 29 29 30 30 30 31 32 33 34 35 35 36 36 36 36 36 35 35 34 34 33
15 16 18 20 22 24 25 26 27 28 29 30 31 31 30 29 27 25 24 24 24 24 23 23 23 22 22 22 22 21 22 22 22 22 22 22 23 23 25 25 26 27 28 28 28 28 27 27 26 26 25 25 26 26 26 26 26 27 27 28 28 29 30 30 30 31 31 31 31 31 32 33 34 35 36 37 37 38 38 38 38 37 37 37 36
17 18 20 23 25 26 28 30 31 32 32 32 31 29 27 26 25 24 24 24 23 23 22 22 22 22 22 22 23 23 24 23 23 24 24 24 25 26 27 28 29 29 29 29 30 29 29 29 28 27 27 27 26 26 26 27 27 28 28 28 28 29 29 30 30 31 32 32 33 33 33 34 34 35 36 37 38 39 40 40 40 40 40 39 39
Wind_Speed
22 21 22 23 23 23 23 22 22 22 23 23 23 23 24 24 24 25 26 27 28 29 29 29 30 30 30 31 31 32 32 32 32 32 33 33 33 34 34 35 35 35 35 35 36 36 36 37 37 37 36 35 36 36 36 36 36 36 36 36 37 37 36 37 35 33 34 37 36 36 37 37 36 35 34 34 35 36 36 36 35 34 33 32 33
22 21 22 23 23 23 24 23 23 24 24 24 24 24 25 25 26 26 27 29 30 30 30 31 31 31 32 32 33 33 33 33 33 34 34 34 35 35 35 36 36 36 36 36 36 36 36 36 37 37 37 36 36 36 36 36 36 36 36 37 37 37 37 37 36 35 35 36 37 37 37 37 37 36 34 34 35 36 36 37 37 35 34 35 36
24 23 23 23 23 24 24 24 25 25 25 25 25 26 26 26 27 28 29 31 31 32 32 32 33 33 34 34 35 35 35 35 35 35 35 35 36 36 36 37 37 37 37 37 37 37 36 37 37 37 38 37 37 37 37 37 37 37 37 37 37 38 38 38 38 37 36 36 36 37 37 37 37 37 34 34 35 36 36 37 38 37 36 37 39
24 24 24 24 25 25 25 26 26 26 26 26 26 26 26 27 28 30 31 32 33 33 34 34 34 35 35 36 36 37 37 37 37 36 36 36 36 37 37 37 37 38 38 38 38 38 38 38 38 39 39 38 38 38 38 38 38 38 38 38 38 38 38 38 39 39 37 36 36 37 38 37 37 37 35 34 35 35 36 37 38 37 35 36 37
23 24 25 26 26 27 27 27 27 26 26 26 27 27 28 29 30 31 33 33 34 35 36 35 36 36 36 37 37 38 38 38 37 37 37 37 37 37 37 38 38 38 39 39 39 39 39 40 40 40 40 39 39 39 39 39 39 39 39 39 39 39 39 39 39 40 39 37 37 37 37 37 36 36 35 34 34 35 34 35 35 35 34 33 32
21 22 23 24 25 26 26 27 27 27 27 27 28 28 29 30 32 33 34 34 35 37 37 38 37 37 38 38 38 38 38 38 37 37 37 37 38 38 38 39 39 40 40 40 40 40 40 40 40 40 40 40 40 39 39 39 39 39 40 40 40 39 39 40 40 40 39 38 38 37 36 37 36 36 35 33 34 35 34 34 34 33 32 31 31
22 22 23 23 24 24 25 26 27 27 27 28 28 29 31 32 33 34 35 36 37 38 39 40 39 39 39 39 39 39 39 38 37 37 37 38 39 39 40 40 40 41 41 41 41 41 40 40 41 41 41 40 40 40 40 40 40 40 40 40 40 40 40 40 41 41 40 39 39 38 37 36 35 35 35 33 33 35 35 34 34 32 31 32 33
21 22 22 23 23 24 24 25 26 27 27 28 29 30 32 33 34 35 36 38 39 40 41 41 41 40 40 40 40 39 38 38 38 38 38 39 40 40 41 41 41 41 42 41 41 41 42 41 41 42 42 42 41 41 41 41 40 40 40 40 41 41 41 41 41 41 41 40 40 40 38 36 35 35 35 34 32 33 35 35 34 32 31 34 37
20 20 20 21 23 23 24 25 26 26 27 28 29 31 33 35 36 37 38 39 40 42 43 42 41 41 41 40 40 39 39 38 38 39 39 40 41 41 42 42 42 42 42 42 42 42 43 43 43 43 43 43 43 42 42 42 41 41 41 41 42 42 41 42 41 41 42 41 40 40 39 37 35 35 35 34 31 32 35 35 34 33 32 34 39
18 19 19 21 23 24 25 25 25 26 27 28 30 32 34 36 37 38 40 41 42 43 43 42 41 41 41 41 40 39 39 39 40 40 41 42 42 42 42 42 43 43 43 43 43 43 44 44 45 45 45 44 44 44 43 43 42 42 41 42 42 42 42 42 42 41 41 41 41 41 40 38 36 36 36 35 32 31 33 35 35 36 35 34 39
20 21 21 23 24 25 25 26 26 27 28 29 31 33 36 38 39 40 41 42 44 44 43 42 41 41 41 40 40 40 40 41 41 42 43 43 43 43 43 43 43 44 44 45 45 46 46 46 46 47 47 47 47 46 45 44 44 43 42 42 42 43 43 43 42 42 42 42 41 42 41 39 37 37 36 36 35 32 32 35 36 36 36 35 37
23 24 24 25 25 25 26 26 27 28 29 31 33 35 37 39 40 42 43 44 44 43 41 41 41 41 41 40 40 40 41 42 42 43 43 43 43 44 44 44 45 45 46 47 47 47 48 48 48 48 49 49 49 49 48 47 46 45 44 44 43 43 43 43 43 42 42 42 41 42 42 40 38 37 37 36 35 33 31 33 35 36 35 34 34
26 25 25 25 26 26 26 26 28 29 31 33 35 37 39 40 41 43 44 44 42 41 41 41 41 40 40 40 40 41 41 42 42 43 43 43 44 45 45 46 46 46 47 48 48 48 49 49 49 49 49 50 50 50 50 49 49 48 47 46 45 45 44 43 43 42 42 41 42 42 43 42 39 38 38 36 34 34 32 31 33 35 34 31 30
26 26 25 25 26 26 27 27 28 30 32 34 36 38 39 41 43 44 43 41 40 40 40 40 40 39 39 39 39 40 40 41 42 42 43 44 44 45 46 46 47 47 48 48 49 49 49 49 50 50 50 50 50 50 50 50 50 50 49 48 48 47 46 44 43 43 42 41 41 42 42 43 41 39 40 38 35 34 33 32 32 33 34 34 31
25 25 26 26 27 27 27 28 29 30 32 34 36 38 40 42 42 41 39 38 38 39 39 39 38 38 38 38 38 39 39 40 41 42 43 43 44 45 46 46 47 48 48 49 49 49 50 50 50 51 51 50 50 51 51 51 51 51 50 49 49 48 47 45 44 44 43 41 41 41 42 43 42 41 41 39 36 33 33 33 32 31 33 37 37
25 27 28 29 29 29 29 29 30 31 32 34 36 38 40 39 38 36 36 37 38 38 38 37 36 36 36 36 37 38 39 40 40 41 42 43 43 44 45 46 46 47 48 49 50 50 51 51 52 52 52 52 52 52 52 52 52 51 51 50 49 48 47 46 45 44 43 42 41 41 41 42 42 42 41 41 37 34 33 33 33 32 32 35 39
28 29 31 31 31 30 30 30 31 32 33 35 36 37 36 34 33 34 36 36 36 35 34 34 34 34 35 35 36 37 38 39 39 40 41 42 42 43 44 45 46 47 48 49 49 50 51 51 52 52 53 53 53 53 52 52 52 51 51 50 49 48 46 45 45 44 43 42 41 41 42 42 42 42 42 42 39 35 33 33 34 33 32 33 37
31 33 34 33 32 30 30 31 32 34 35 35 34 32 31 31 32 34 34 34 33 32 31 32 32 33 34 35 36 37 37 38 38 39 39 40 41 41 42 43 45 46 47 48 48 49 50 50 51 51 51 51 52 52 52 52 51 51 51 50 48 47 46 45 45 44 43 42 41 41 41 41 42 41 42 42 40 36 34 33 34 35 34 32 33
31 32 32 31 31 31 31 32 33 32 31 29 28 28 29 31 32 32 31 30 30 29 30 31 31 32 33 34 35 35 35 36 36 37 38 38 39 40 41 42 43 44 45 46 47 47 48 49 49 50 50 49 48 47 47 48 48 49 49 48 46 46 45 45 44 43 43 42 41 40 40 40 41 41 41 42 41 38 35 33 34 35 36 35 32
28 27 26 28 30 31 31 29 27 25 24 25 26 28 29 29 29 28 28 28 28 29 29 30 31 32 32 32 33 33 34 34 35 35 36 37 38 39 40 41 41 42 43 43 44 45 45 45 45 45 45 44 42 41 41 41 41 43 44 44 44 44 43 44 43 43 42 41 40 39 39 39 40 40 40 41 40 38 36 34 34 35 36 36 35
21 22 24 26 26 25 23 21 21 22 23 25 26 26 26 26 26 26 26 26 27 27 28 29 30 30 31 31 31 32 32 33 33 34 34 35 36 37 38 38 39 40 41 41 42 42 42 41 40 38 37 36 34 33 32 31 31 33 36 37 39 40 41 41 42 41 41 40 39 38 38 38 39 38 39 39 39 38 36 34 34 35 35 36 36
16 18 20 21 20 19 19 19 20 22 24 24 24 24 24 24 24 24 25 25 26 26 27 28 29 29 29 30 30 31 31 31 32 32 33 34 34 35 35 36 37 38 39 39 40 40 40 38 36 33 31 29 26 24 23 23 23 25 27 29 32 35 36 38 38 39 39 38 38 37 37 37 37 37 37 37 38 38 36 34 34 34 35 36 36
15 16 17 18 18 18 18 20 21 21 21 21 21 21 22 22 23 23 23 24 25 26 27 27 27 28 28 29 29 30 30 30 31 32 32 32 33 33 34 34 35 36 37 38 39 40 39 37 33 30 27 23 19 17 17 18 20 21 22 23 25 27 30 33 34 35 35 36 35 35 35 35 36 36 36 36 37 37 36 34 33 33 34 35 36
14 15 16 16 17 18 18 19 19 19 19 19 20 21 21 22 22 22 22 23 24 25 25 26 26 27 28 28 28 29 29 29 30 31 31 31 31 32 32 32 33 34 35 36 37 39 39 36 32 28 25 21 17 15 14 14 15 17 19 20 21 22 24 26 28 30 31 32 32 33 33 33 33 34 35 35 35 36 36 34 32 31 32 34 35
14 14 15 16 17 17 17 17 17 17 18 19 20 20 21 20 20 21 21 22 23 24 25 25 26 26 27 27 27 28 28 29 29 29 29 29 30 30 30 30 30 31 32 34 35 36 36 35 32 28 25 22 18 18 17 15 14 14 15 16 17 18 19 20 22 24 25 27 28 29 30 30 30 31 32 33 33 33 34 33 31 29 30 32 34
14 15 16 16 15 15 15 16 16 17 18 19 19 19 19 19 19 20 21 22 23 24 24 24 25 25 26 26 27 27 27 27 27 28 28 28 28 28 28 28 28 29 30 30 31 31 32 32 31 28 24 21 18 18 18 18 16 14 14 15 15 14 14 16 17 18 19 21 23 24 25 26 27 27 28 29 29 29 30 30 30 29 29 30 31
16 15 15 15 14 15 15 16 17 17 18 18 18 18 18 18 19 20 21 22 22 23 23 24 24 25 25 25 26 26 26 26 26 27 27 27 27 27 27 27 27 27 27 27 27 28 28 30 31 31 28 24 19 17 16 16 15 15 15 15 14 13 11 12 13 13 13 15 17 18 20 22 23 24 25 26 27 26 26 26 26 25 25 27 27
15 14 14 14 15 15 16 16 17 17 17 17 17 17 17 18 19 20 21 21 22 22 23 23 24 24 24 25 25 25 25 25 25 26 26 26 26 26 26 26 26 26 26 26 26 26 28 29 30 32 32 31 27 21 17 15 14 13 12 12 11 11 10 9 9 10 10 11 13 14 15 17 19 21 22 24 25 25 24 24 24 23 23 24 25
15 14 14 15 16 16 16 17 17 17 17 17 17 17 17 18 19 20 20 21 21 22 22 23 23 23 23 23 24 23 23 23 23 24 24 24 24 24 24 24 25 24 24 25 25 26 28 29 29 29 30 30 30 28 23 18 15 14 13 11 9 9 8 8 7 8 8 10 11 12 13 15 16 17 19 20 22 23 23 23 23 24 23 23 23
15 15 16 16 17 17 17 17 17 17 17 17 17 17 17 18 19 20 20 20 21 21 22 22 22 22 22 22 22 21 21 21 21 22 22 23 23 23 23 23 24 24 24 25 26 27 27 28 28 28 28 28 28 29 28 26 22 17 15 13 11 10 9 8 7 6 7 8 9 10 12 13 14 15 16 17 19 20 21 21 21 21 22 22 22
16 16 17 17 17 17 17 17 17 17 17 16 17 17 18 18 19 19 20 20 21 21 21 21 21 20 20 20 19 19 19 20 21 21 22 22 23 23 23 23 23 24 24 25 25 26 27 27 26 26 26 26 26 26 27 28 27 25 22 19 15 12 11 10 8 7 7 7 7 8 9 11 12 13 15 16 17 18 19 20 20 19 19 19 19
17 18 18 18 17 17 17 17 17 16 16 16 17 17 18 18 19 19 19 20 20 20 20 20 19 19 18 18 18 18 18 19 20 21 21 22 22 23 23 23 23 23 23 24 25 25 25 25 25 25 25 25 25 25 25 25 26 26 26 25 23 19 16 12 10 8 8 8 8 8 8 9 10 11 12 14 15 16 17 18 19 19 19 19 17
18 18 18 18 18 17 17 17 17 16 16 17 17 18 18 18 19 19 19 20 20 20 19 19 18 17 17 17 17 17 18 19 20 21 21 22 22 22 22 22 22 22 23 23 24 24 24 24 24 24 24 24 24 23 23 23 23 23 23 23 23 23 22 20 17 14 11 8 7 8 9 9 10 10 11 11 12 13 14 15 16 17 18 18 18
19 18 18 18 17 17 17 16 16 16 17 17 18 18 18 18 18 19 19 19 19 19 18 18 17 17 16 16 16 17 17 18 19 20 21 21 22 22 22 21 21 21 22 22 22 22 23 23 23 24 24 24 24 23 22 22 22 22 21 22 22 22 22 23 22 21 19 16 13 10 8 7 8 9 10 10 11 11 12 12 13 14 15 16 16
19 18 18 17 17 17 17 16 17 17 17 17 18 18 18 18 18 18 19 19 18 18 18 17 16 16 15 15 15 16 17 18 19 20 20 21 21 21 21 21 21 21 21 21 21 21 22 22 23 23 24 24 23 23 22 22 21 21 20 20 21 21 21 21 20 20 20 20 19 18 15 13 11 9 8 7 8 8 9 10 11 11 12 13 13
18 18 17 17 17 17 17 17 17 17 17 18 18 18 18 18 18 18 18 18 18 17 17 16 15 15 14 14 15 15 16 17 18 19 20 20 20 21 21 21 21 21 20 20 20 20 20 21 22 23 23 23 23 23 22 22 21 21 20 20 19 19 19 19 19 19 19 19 19 19 18 18 17 16 14 13 11 10 9 8 8 8 9 9 10
18 17 17 17 17 17 17 17 17 17 17 18 18 18 18 18 18 18 18 18 17 16 16 15 14 14 13 14 14 15 16 17 18 19 20 20 20 20 20 21 20 20 19 19 19 19 19 20 22 22 23 23 23 22 22 22 22 21 20 20 19 19 18 18 18 18 18 18 18 18 17 17 17 17 17 16 16 15 14 13 12 11 10 9 8
17 17 17 17 17 17 17 17 17 17 17 17 17 17 17 17 17 17 17 17 16 15 15 14 13 13 13 13 13 14 15 16 18 19 19 19 19 20 20 20 19 18 18 18 18 18 18 19 21 22 22 22 22 22 22 22 22 21 21 20 19 19 18 18 17 17 17 17 17 16 16 16 16 16 16 16 16 15 15 15 15 14 14 13 12
17 17 17 17 17 17 17 17 17 17 17 17 17 17 17 17 17 17 16 16 15 14 14 13 13 13 12 12 13 14 15 16 17 18 18 18 19 19 19 19 18 18 17 17 16 16 17 19 20 21 21 22 22 22 22 22 22 22 22 21 21 20 19 19 18 17 17 16 16 15 15 15 15 15 15 15 15 15 15 14 14 14 14 14 14
17 17 18 18 18 17 17 17 17 17 17 17 17 17 17 16 16 16 15 15 14 13 13 13 13 12 12 12 13 13 14 15 16 17 17 18 18 19 19 18 18 17 17 16 16 16 16 18 19 20 20 21 21 22 22 22 22 22 23 23 22 22 21 20 19 18 18 17 16 16 15 15 14 14 14 14 14 14 14 14 14 14 14 14 14
18 18 18 18 17 17 17 17 16 16 16 16 16 16 16 15 15 15 14 14 13 13 13 13 12 12 12 12 12 13 14 15 15 16 16 17 17 18 18 18 17 17 17 16 16 16 16 17 18 18 19 20 20 21 21 21 22 22 22 22 22 22 22 22 21 20 19 18 18 17 17 16 15 15 14 14 14 14 14 14 14 14 14 14 14
18 18 18 17 17 17 16 16 16 15 15 15 15 15 15 15 14 14 13 13 12 12 12 12 11 11 11 11 12 13 13 14 14 15 16 16 16 17 17 17 17 17 17 17 17 17 17 17 17 18 19 19 20 20 20 21 21 21 21 22 22 22 22 22 22 22 21 20 20 19 18 18 17 17 16 16 15 15 15 15 15 15 15 15 15
19 18 17 17 16 16 16 15 15 15 14 14 14 14 14 14 14 13 12 12 11 11 11 10 10 9 9 10 11 12 12 12 13 14 15 16 16 16 17 17 17 17 17 18 18 18 18 19 19 19 19 19 20 20 20 20 20 20 20 21 21 21 21 22 22 22 21 21 21 20 20 19 19 18 18 18 17 17 17 16 16 16 16 16 16
18 18 17 16 16 15 14 14 14 14 14 14 13 13 13 13 13 12 11 10 10 9 9 8 8 8 8 9 10 10 10 11 12 14 14 15 16 17 17 17 18 18 18 18 19 19 19 20 20 20 21 21 21 21 21 21 20 20 20 20 20 20 21 21 21 21 21 21 21 21 21 20 20 19 19 19 19 18 18 18 18 17 17 17 17
18 17 16 15 15 14 14 13 13 13 13 13 13 12 12 11 11 11 10 8 8 7 7 6 6 7 7 8 8 9 10 11 12 13 14 15 16 17 18 18 19 19 19 20 20 20 21 21 21 22 22 22 22 22 22 22 22 21 21 21 21 21 21 21 21 21 21 21 21 21 21 21 21 20 20 20 19 19 19 19 19 19 18 18 18
17 16 15 14 14 13 13 13 13 13 13 13 12 11 10 9 9 9 8 6 6 5 5 5 6 6 6 7 8 9 10 11 12 13 15 16 16 18 19 19 20 20 21 21 21 22 22 22 23 23 23 23 23 24 23 23 23 23 23 23 22 22 22 22 22 22 22 22 22 22 22 22 22 22 21 21 21 21 20 20 20 20 20 20 20
16 15 14 14 13 13 13 13 13 13 13 12 10 9 8 7 7 6 6 5 5 5 6 6 6 6 6 7 8 9 10 12 13 14 15 16 17 18 19 20 21 22 22 23 23 23 24 24 24 24 25 25 25 25 25 25 25 25 24 24 24 24 24 24 23 23 23 23 23 23 23 23 23 23 23 23 23 22 22 22 22 21 21 21 21
15 14 14 13 13 12 12 12 12 11 10 9 8 7 6 5 5 5 5 5 6 6 6 6 7 7 8 9 10 11 12 13 14 15 16 17 18 19 19 21 22 22 23 24 25 25 25 26 26 26 26 26 26 27 27 27 27 26 26 26 26 25 25 25 25 25 25 24 24 24 24 24 24 24 24 24 24 24 24 24 24 24 23 23 23
15 14 14 13 12 12 11 11 10 9 8 7 6 5 5 5 5 5 6 6 7 7 7 8 9 9 10 11 12 13 14 15 16 16 17 18 18 19 20 21 22 23 24 25 26 27 27 27 27 27 28 28 28 28 28 28 28 28 28 28 27 27 27 26 26 26 26 26 25 25 25 25 25 25 25 25 25 25 25 25 25 25 25 25 25
14 14 13 12 11 11 10 9 8 7 6 6 6 6 6 6 6 7 7 8 8 9 9 10 11 12 12 13 14 15 16 17 17 18 19 20 21 22 23 23 24 25 26 26 27 28 29 29 29 29 29 29 29 29 29 29 30 30 30 30 30 29 29 28 28 27 27 27 27 27 26 26 26 26 26 26 26 26 26 26 26 26 26 26 26
14 13 12 12 11 10 9 8 8 7 7 7 7 8 8 8 8 9 9 10 10 11 11 12 12 13 14 15 16 17 18 19 20 21 21 22 23 24 25 26 27 28 29 29 29 30 30 31 31 31 31 31 31 31 31 31 31 31 31 31 32 31 31 31 30 30 29 29 29 29 28 28 28 28 28 28 28 28 28 28 28 28 28 28 28
Wind_Direction
244 244 245 246 247 247 248 249 251 256 262 266 270 273 277 281 285 287 289 291 293 294 294 295 296 296 297 297 297 297 297 297 297 297 297 296 295 295 294 293 293 292 291 290 290 290 290 289 290 290 291 291 291 291 292 291 291 291 291 290 290 291 291 292 293 294 295 295 295 296 297 298 299 292 277 266 261 258 257 254 253 254 253 252 253
239 240 243 246 248 249 250 251 253 257 262 266 269 273 277 281 284 287 290 292 293 294 295 296 297 297 297 297 297 297 297 298 298 298 298 297 295 294 293 292 291 290 290 290 290 290 290 290 290 290 291 291 291 291 291 291 291 290 289 289 289 289 289 290 291 292 292 293 293 294 295 296 299 295 280 265 260 257 256 253 251 253 256 254 252
234 235 240 244 247 249 250 253 256 258 262 265 269 273 277 281 284 288 291 292 293 294 296 297 298 298 298 298 299 299 299 300 300 299 298 298 296 295 293 291 290 289 289 289 289 289 288 288 288 288 289 289 289 290 290 290 289 289 288 288 287 287 288 288 289 289 289 291 293 292 293 295 298 297 284 267 259 256 255 253 251 251 256 257 253
237 239 242 245 247 249 251 254 256 258 261 264 269 273 278 281 285 288 290 291 292 294 296 297 298 298 299 299 300 301 301 301 300 300 299 298 297 295 294 292 290 289 288 288 288 287 287 286 286 286 287 287 287 288 288 288 288 287 287 286 286 286 286 286 287 287 287 289 291 291 291 293 295 296 288 271 260 257 255 253 251 251 255 257 252
243 244 247 249 250 252 253 255 257 259 261 265 269 273 277 282 285 287 288 289 291 294 296 297 297 298 298 299 300 300 301 301 300 300 299 298 297 296 294 293 291 289 288 287 286 286 285 285 285 285 285 285 286 286 286 286 286 286 286 285 284 284 284 284 284 284 285 286 287 288 289 290 292 294 291 277 264 259 256 253 251 251 255 255 247
246 248 251 253 255 256 257 258 259 260 262 265 269 273 277 281 283 284 285 287 291 295 297 297 297 298 299 299 300 300 300 300 300 299 299 298 297 296 294 292 290 289 288 287 286 285 285 285 285 285 285 284 284 284 284 284 283 284 284 283 283 282 282 282 282 282 283 283 284 285 286 288 290 293 292 281 265 259 257 254 250 252 256 253 242
249 252 255 258 260 261 261 262 261 261 263 265 269 272 276 279 281 282 284 287 292 296 298 298 298 299 299 300 301 301 301 300 300 299 298 297 296 294 293 291 289 288 287 286 286 285 285 285 285 284 284 283 283 283 282 282 281 281 281 281 281 280 280 280 280 280 281 281 281 283 284 286 288 290 292 283 268 259 258 255 250 253 258 252 241
249 252 256 259 262 263 264 264 262 262 263 265 268 271 274 277 279 281 284 288 292 296 299 299 298 299 300 301 301 301 300 300 300 299 298 297 295 294 292 291 289 288 287 286 286 286 285 285 284 283 283 282 281 281 280 279 279 278 278 278 278 277 277 277 277 278 278 278 279 281 282 284 285 287 289 285 271 259 257 255 250 253 259 252 240
249 253 257 261 263 264 264 263 263 262 263 265 268 271 274 276 279 282 285 288 292 296 298 298 298 299 300 301 301 300 299 299 299 298 297 296 295 294 293 292 291 290 289 288 288 287 287 286 285 284 283 282 281 279 278 278 277 276 275 275 275 275 275 275 275 276 276 276 277 278 280 281 282 283 285 284 275 263 258 257 252 253 259 255 243
254 260 265 267 266 265 264 263 263 263 264 266 268 271 274 277 280 283 286 288 291 295 297 297 298 299 301 300 300 300 300 300 299 299 298 297 296 295 294 293 293 292 292 291 290 290 289 288 287 286 285 283 282 280 279 278 277 275 274 273 273 273 273 273 273 274 274 274 275 276 277 278 279 279 281 282 278 268 260 258 255 252 257 261 250
263 269 271 270 268 266 264 263 263 264 265 267 269 272 274 277 280 283 286 288 292 295 296 296 298 299 300 299 299 300 300 300 300 300 299 298 297 297 296 296 295 295 294 293 292 291 290 288 287 286 285 284 283 282 280 278 277 276 275 273 272 271 271 271 271 271 272 272 273 274 275 275 276 276 278 280 280 274 262 257 257 253 255 263 255
270 272 273 271 268 266 265 264 264 264 266 267 269 272 274 277 280 283 285 289 292 294 295 296 298 298 298 299 300 300 301 301 301 300 300 300 300 300 299 299 298 297 296 294 293 292 290 289 287 285 284 283 282 281 279 278 277 276 275 274 272 272 270 270 269 269 269 270 270 272 272 273 273 274 275 277 279 278 269 260 258 255 254 263 257
271 273 273 271 268 266 266 265 265 266 266 267 269 271 274 277 280 282 286 290 292 294 295 296 297 297 298 299 300 301 301 302 302 302 302 302 302 301 301 300 299 298 296 295 294 292 291 289 288 286 284 282 281 279 277 276 275 274 273 272 271 271 270 270 269 268 267 267 267 269 270 271 272 272 273 274 275 278 276 267 261 255 252 260 256
271 271 271 271 269 268 266 266 266 266 266 267 269 271 274 277 279 283 287 291 292 293 294 295 296 297 299 301 302 303 303 303 303 303 303 303 303 302 302 301 300 299 298 296 295 293 291 290 288 286 284 282 280 279 277 275 273 271 270 269 269 269 269 270 270 269 267 266 265 266 268 270 271 270 271 273 273 274 275 273 267 258 251 252 251
269 270 271 272 271 269 267 267 267 267 268 269 271 273 275 277 281 286 289 291 292 293 294 295 297 300 302 303 304 304 305 305 305 305 305 305 305 304 303 303 302 300 299 298 296 295 293 291 289 286 284 281 279 277 275 274 272 271 269 268 267 267 267 268 269 269 268 266 264 264 265 267 269 270 270 272 272 272 272 273 272 265 256 251 246
269 272 274 274 272 270 267 266 266 267 268 270 272 274 277 280 284 288 290 291 292 293 295 297 300 302 304 304 305 306 306 307 307 307 307 306 306 305 305 304 303 302 300 299 297 296 294 291 289 286 284 281 278 275 273 272 271 270 269 267 266 265 265 266 267 267 267 267 265 263 263 264 265 267 269 270 271 271 270 270 271 270 266 257 246
274 277 277 275 270 266 263 263 264 266 268 270 273 276 280 283 286 288 289 290 292 294 297 300 302 303 305 306 307 307 308 308 308 308 308 307 307 307 306 306 305 304 302 301 300 298 296 293 291 288 285 282 279 276 273 270 269 267 267 266 266 265 264 264 264 264 265 265 264 263 263 263 264 265 267 269 270 270 269 269 269 268 271 266 249
279 279 277 270 262 259 260 260 262 264 267 270 275 279 283 285 286 288 289 291 294 297 300 302 303 305 306 307 308 308 308 309 309 309 309 309 309 309 309 309 309 308 307 306 305 303 301 298 295 291 287 284 281 278 274 271 268 266 265 264 264 263 262 262 262 262 262 262 263 263 263 263 263 264 265 267 269 269 267 267 268 267 270 271 253
282 278 272 265 258 255 256 256 260 265 269 275 279 282 284 285 286 288 291 294 298 300 301 303 304 305 306 307 308 308 309 309 310 311 311 312 312 313 314 314 314 314 313 312 311 309 307 303 300 295 291 287 283 280 276 272 269 266 264 263 262 261 260 260 260 260 260 260 261 261 261 262 263 263 264 266 267 268 267 266 268 269 269 273 265
282 273 264 259 254 251 252 256 263 270 275 279 281 283 284 286 288 291 294 297 299 300 302 303 305 306 307 308 308 309 310 311 312 313 314 316 317 319 319 319 319 319 319 319 318 316 314 310 305 300 295 292 288 284 280 276 272 269 266 263 261 259 258 258 258 259 259 260 260 260 259 259 261 261 262 264 266 268 268 266 267 269 269 272 273
273 263 258 256 253 253 258 265 272 276 278 280 282 283 286 288 291 294 296 298 299 301 303 304 306 307 308 309 310 311 312 314 315 317 319 321 322 322 322 323 324 325 325 326 326 325 323 318 312 307 302 299 296 293 288 283 278 274 271 266 262 258 256 257 257 258 259 259 260 260 259 259 259 260 260 262 264 267 268 268 267 268 268 269 270
259 256 257 258 259 263 269 273 275 277 279 281 283 285 288 290 293 295 296 298 300 302 304 305 307 308 309 310 312 314 315 317 318 320 322 323 323 323 324 326 328 329 330 332 333 335 334 328 321 316 313 310 307 303 297 291 287 285 281 275 268 261 257 256 256 257 258 259 260 260 260 260 260 261 261 261 263 266 269 270 268 267 267 267 268
255 255 258 261 265 269 272 273 276 278 280 282 285 287 290 292 294 295 298 300 301 303 305 307 309 310 312 313 315 317 318 319 321 322 323 324 324 325 328 330 332 334 336 338 340 343 343 338 332 327 325 320 315 313 307 299 295 294 291 287 280 270 262 258 257 258 259 260 261 261 261 261 261 262 263 262 263 266 269 271 270 268 266 266 266
259 260 263 266 269 271 273 276 278 281 283 286 288 289 291 293 295 297 299 301 303 305 307 309 311 313 314 315 317 319 320 321 322 323 324 325 327 329 332 333 335 338 341 344 347 350 351 348 342 337 334 328 316 310 311 309 304 300 297 295 290 281 271 264 261 261 261 262 262 262 262 262 263 264 265 265 264 265 268 270 270 268 265 264 264
265 267 268 270 273 275 277 280 282 284 286 288 289 290 292 294 296 298 300 303 306 308 309 311 313 314 315 316 318 320 322 323 323 324 325 328 331 333 334 336 339 342 346 350 353 355 357 357 353 344 337 330 320 311 310 311 312 312 311 307 299 290 283 275 268 265 264 264 265 265 264 265 265 265 266 267 267 266 268 270 269 266 263 262 263
273 275 276 277 278 279 281 283 285 286 287 288 289 291 293 295 297 299 302 305 307 309 310 312 313 315 316 317 319 321 323 323 324 326 329 332 334 336 337 338 342 346 350 353 356 358 1 5 5 358 346 334 323 317 313 310 309 309 312 314 310 302 294 284 276 271 267 266 266 267 267 267 267 267 267 268 269 269 268 269 270 268 263 260 260
280 281 281 281 281 282 284 286 286 286 287 288 290 292 294 296 299 301 304 306 307 309 311 312 314 315 316 318 321 323 324 325 327 330 334 336 337 338 340 342 345 349 351 354 356 358 2 8 13 13 9 359 345 331 321 317 314 307 304 307 308 304 295 284 277 274 271 268 267 268 268 268 268 268 268 268 269 270 269 269 270 271 268 264 262
283 283 281 282 283 286 287 287 286 286 288 290 293 295 296 297 299 302 304 306 307 309 311 313 315 316 318 320 323 325 327 329 332 335 337 338 340 342 344 347 349 350 351 353 356 358 4 9 14 17 18 16 10 359 342 327 319 314 311 309 306 301 294 283 277 275 273 271 270 269 269 269 268 267 267 268 269 270 269 268 268 269 270 270 268
283 282 282 284 287 288 288 287 287 289 291 294 294 294 294 297 300 302 304 305 306 309 311 313 315 317 320 323 325 327 330 333 336 338 339 341 344 346 347 349 351 351 353 356 358 2 7 10 13 16 18 19 20 18 11 357 339 325 318 316 313 309 304 295 287 280 273 269 268 267 267 268 268 268 267 267 269 269 269 270 269 269 271 273 273
281 282 285 288 288 287 287 287 288 291 292 292 291 291 294 297 299 302 303 305 306 309 311 314 316 318 321 324 326 328 331 334 337 339 341 343 347 348 349 351 353 354 357 360 3 6 9 10 10 12 14 17 20 22 23 21 15 3 346 331 320 314 309 305 300 292 282 274 269 266 266 267 267 268 269 268 269 269 269 269 270 270 272 274 275
281 284 286 287 285 285 285 286 288 289 289 288 288 290 293 296 299 301 303 304 307 309 312 314 315 317 320 323 325 327 329 333 337 340 342 346 349 350 351 353 354 356 360 4 7 10 11 9 8 9 10 13 16 19 22 25 25 25 21 13 360 344 329 315 306 298 291 287 281 274 271 268 267 267 269 270 271 272 272 270 268 269 271 273 275
280 282 283 282 281 281 282 284 285 285 284 284 286 288 292 296 299 300 302 304 307 309 311 313 314 315 318 321 322 325 328 334 338 340 344 348 350 351 352 354 354 356 1 5 8 10 10 9 8 8 8 10 12 15 19 21 24 26 28 28 26 22 14 359 341 323 307 296 290 286 281 277 274 271 272 273 275 275 275 274 272 271 272 274 278
278 279 279 278 277 278 280 282 282 281 280 281 284 288 293 296 298 299 302 304 307 308 310 311 311 311 314 317 320 324 330 335 338 341 345 348 350 350 351 352 353 356 1 5 6 7 8 8 8 8 8 9 10 12 15 18 21 23 25 27 29 30 31 29 25 18 6 343 318 301 290 284 281 279 278 277 278 278 278 278 277 275 275 276 278
276 276 275 274 275 276 277 278 277 276 277 280 284 288 292 294 296 299 302 304 306 307 308 307 306 307 310 315 319 324 329 334 338 341 345 347 347 347 348 349 351 355 360 2 3 4 5 7 7 7 8 8 9 10 11 13 17 20 22 24 26 28 30 32 32 32 31 28 22 9 348 323 306 296 290 285 283 283 283 282 280 279 279 279 278
273 272 271 272 272 273 273 273 272 273 275 280 285 288 291 293 296 299 302 304 305 305 305 303 302 303 307 312 317 323 328 332 337 341 343 344 344 345 346 348 350 354 356 357 359 2 4 5 5 6 7 7 8 8 9 10 12 14 16 19 22 25 28 29 29 30 32 33 33 33 30 26 19 5 347 329 314 305 298 293 289 286 283 281 280
270 269 269 269 269 269 269 269 269 272 276 282 286 288 291 294 297 299 301 303 303 303 302 300 298 300 305 311 316 321 326 331 335 339 341 341 342 344 346 348 350 352 353 354 356 360 2 4 4 5 5 6 7 7 8 9 9 10 11 13 16 20 23 25 26 28 29 30 31 31 32 32 32 31 28 25 19 11 360 345 330 317 307 298 292
268 268 268 267 267 267 267 267 269 274 280 284 287 289 291 294 297 299 301 301 301 301 299 297 296 298 304 310 314 319 324 330 334 336 338 340 342 345 347 349 350 350 350 352 355 358 1 3 4 5 5 6 7 7 8 9 9 8 8 9 10 12 15 17 20 24 25 27 27 28 28 28 29 29 29 30 30 29 27 24 20 13 5 357 346
266 265 264 264 264 264 265 268 272 278 282 285 287 289 292 295 297 299 300 301 301 300 298 296 295 297 301 307 312 318 323 328 331 333 335 339 343 346 348 348 348 348 349 351 353 357 360 2 4 5 6 7 8 9 9 9 9 9 9 8 8 8 8 10 12 15 18 21 22 23 24 24 25 25 25 25 26 27 26 26 26 25 22 20 17
263 262 261 260 261 262 266 270 276 280 283 285 287 290 293 296 299 301 302 302 301 300 298 296 295 296 301 306 311 316 321 324 328 332 336 340 344 346 347 347 347 348 348 350 353 355 358 1 3 5 7 8 10 11 11 11 11 11 10 10 9 8 7 6 6 6 8 10 12 14 16 17 19 19 19 20 20 20 20 20 20 20 19 19 18
260 259 258 258 259 263 268 273 278 281 283 285 288 291 295 298 300 301 302 301 300 299 297 295 295 297 301 306 310 314 319 324 329 334 339 342 344 346 346 347 348 348 348 350 352 354 356 359 1 3 5 7 9 10 11 12 13 13 13 12 11 10 8 7 5 3 2 2 1 2 4 5 6 7 9 10 11 10 10 11 11 10 10 10 10
256 255 255 256 260 265 271 276 279 281 284 287 291 294 297 300 301 301 300 299 298 296 294 293 293 296 300 305 310 315 320 326 332 336 340 344 346 346 347 349 350 350 349 349 350 351 353 354 357 358 0 2 3 5 7 9 10 11 12 13 12 12 10 9 7 5 3 0 358 357 356 355 355 356 356 357 358 358 358 358 359 359 359 359 359
252 252 253 257 262 268 273 276 279 282 286 289 293 296 299 300 299 298 296 294 293 291 289 289 290 294 299 304 311 317 323 329 335 339 343 346 347 348 349 351 353 353 352 351 350 350 350 350 351 352 353 354 356 358 360 1 3 5 6 8 9 9 9 9 8 6 5 2 0 358 356 354 352 350 349 348 347 347 347 346 346 346 346 346 346
249 250 253 259 265 270 274 277 280 283 287 290 294 296 297 296 294 292 289 286 285 284 283 284 286 291 299 306 313 320 327 333 338 341 344 347 348 350 352 354 355 355 355 354 353 351 350 349 348 348 348 349 349 350 351 353 354 356 357 359 1 2 3 4 4 4 3 2 1 359 358 356 353 351 349 347 345 343 341 340 339 338 338 337 337
247 250 255 262 268 271 274 277 280 284 287 290 292 293 291 289 287 284 281 279 277 276 276 277 282 291 301 310 317 324 330 335 340 343 344 346 348 351 352 354 355 356 356 355 354 353 352 351 349 348 348 347 347 346 347 347 347 348 349 350 352 353 355 356 357 358 358 358 358 357 356 354 353 351 349 347 345 343 341 339 337 335 334 332 331
247 252 259 264 267 269 273 276 280 283 286 288 289 289 288 284 281 278 276 274 271 269 269 274 284 297 307 316 323 328 332 336 339 342 344 345 347 348 350 351 352 353 354 353 353 352 351 350 349 349 348 347 346 345 345 344 343 344 344 344 344 346 346 347 348 350 350 351 351 352 351 351 350 349 347 346 344 342 340 338 337 335 333 332 330
248 255 259 261 263 267 271 275 279 283 285 286 286 285 285 282 280 278 277 273 270 272 278 286 296 306 314 321 325 328 331 335 337 339 341 343 344 345 346 347 347 348 349 349 349 348 348 347 347 346 346 345 344 343 343 342 341 341 340 340 341 341 341 342 342 342 343 344 344 344 345 345 345 344 343 342 341 340 338 337 336 334 332 330 329
250 254 256 257 261 266 271 276 280 282 283 283 284 283 282 279 277 275 276 277 282 288 294 300 307 313 318 321 324 327 329 332 334 336 337 339 340 341 342 342 343 343 343 343 343 343 343 343 343 342 342 341 341 340 339 339 338 338 338 337 337 337 337 337 337 337 337 337 338 338 338 338 338 338 338 337 336 335 334 333 332 331 330 329 327
249 250 250 253 259 266 272 277 279 280 279 280 282 282 278 275 272 275 281 287 293 297 301 306 311 315 318 321 323 325 327 329 331 333 334 335 336 337 338 338 338 339 338 338 338 338 338 338 337 337 337 336 336 336 335 334 334 334 334 333 333 333 333 332 332 332 332 331 332 332 332 332 332 332 332 332 331 331 330 329 328 327 326 325 324
245 245 247 252 259 267 273 276 277 276 274 274 275 275 274 275 279 284 290 293 296 300 304 308 311 314 317 320 321 323 325 327 327 329 330 331 332 333 333 334 334 334 334 334 333 333 333 332 332 331 331 331 331 331 330 330 330 329 329 329 329 329 328 327 327 326 326 326 326 326 326 326 326 326 326 326 326 325 324 324 323 322 321 321 320
240 242 248 255 262 268 272 273 272 269 266 266 269 272 275 280 286 290 293 296 298 301 303 307 309 312 315 317 319 320 322 322 323 324 326 327 327 328 328 329 329 329 329 329 329 328 328 327 327 326 326 326 325 325 325 325 325 325 325 325 324 324 323 323 323 322 321 321 321 320 320 320 320 320 320 320 320 320 320 319 318 318 317 317 316
237 243 250 257 263 267 267 266 265 264 264 266 271 275 279 283 286 289 292 294 296 299 301 303 306 308 311 313 315 316 317 318 319 319 320 321 322 323 323 323 324 324 324 324 324 323 323 323 323 323 322 322 321 321 320 320 320 320 320 320 320 319 319 319 318 318 317 317 316 316 316 316 315 315 316 315 315 315 315 315 315 315 314 314 313